Home   Weather   China   Hangzhou   Past weeks
Flag for China

Past Weather in Hangzhou, Zhejiang, China — Yesterday and Last 2 Weeks

Currently: 50 °F. Sprinkles. Fog. (Weather station: Hangzhou Airport, China). See more current weather

Past Weather in Hangzhou — Graph

°F

Hangzhou Temperature Yesterday

Maximum temperature yesterday: 55 °F (at 11:00 am)
Minimum temperature yesterday: 45 °F (at 2:30 am)
Average temperature yesterday: 52 °F

High & Low Weather Summary for the Past Weeks

 TemperatureHumidityPressure
High81 °F (Feb 22, 1:30 pm)100% (Feb 26, 4:30 am)30.42 "Hg (Feb 26, 4:30 am)
Low43 °F (Feb 20, 4:00 am)12% (Feb 20, 3:00 pm)29.86 "Hg (Feb 21, 2:30 pm)
Average54 °F74%30.11 "Hg
* Reported Feb 19 9:00 am — Mar 6 9:00 am, Hangzhou. Weather by CustomWeather, © 2021

Note: Actual official high and low records may vary slightly from our data, if they occured in-between our weather recording intervals... More about our weather records

Hangzhou Weather History for the Previous 24 Hours

Scroll right to see more
 ConditionsComfort  
Time TempWeatherWind HumidityBarometerVisibility
9:00 am
Sat, Mar 6
50 °FSprinkles. Fog.13 mph100%30.24 "Hg1 mi
8:30 am50 °FRain showers. Fog.13 mph100%30.24 "Hg1 mi
8:00 am50 °FSprinkles. Fog.13 mph94%30.21 "Hg2 mi
7:30 am50 °FSprinkles. Fog.13 mph94%30.18 "Hg2 mi
7:00 am50 °FLight rain. Partly sunny.15 mph94%30.12 "Hg4 mi
6:30 am50 °FPartly sunny.15 mph94%30.15 "Hg4 mi
6:00 am52 °FLight rain. Fog.13 mph94%30.15 "Hg3 mi
5:30 am50 °FRain showers. Fog.13 mph100%30.12 "Hg2 mi
5:00 am50 °FSprinkles. Fog.6 mph100%30.15 "Hg3 mi
4:30 am52 °FLight rain. Partly cloudy.10 mph88%30.09 "Hg5 mi
4:00 am52 °FLight rain. Passing clouds.10 mph88%30.09 "Hg5 mi
3:30 am52 °FPassing clouds.6 mph88%30.09 "Hg5 mi
2:30 am52 °FPassing clouds.3 mph88%30.09 "Hg5 mi
2:00 am50 °FClear.6 mph94%30.09 "Hg5 mi
1:30 am50 °FClear.8 mph94%30.09 "Hg5 mi
1:00 am52 °FClear.3 mph88%30.12 "Hg4 mi
12:30 am50 °FSprinkles. Clear.6 mph94%30.09 "Hg4 mi
12:00 am50 °FSprinkles. Clear.3 mph94%30.09 "Hg4 mi
11:30 pm
Fri, Mar 5
50 °FSprinkles. Clear.3 mph94%30.09 "Hg4 mi
11:00 pm50 °FSprinkles. Clear.3 mph94%30.12 "Hg4 mi
10:30 pm52 °FSprinkles. Clear.3 mph88%30.12 "Hg4 mi
10:00 pm52 °FSprinkles. Clear.1 mph88%30.12 "Hg5 mi
9:30 pm54 °FLight rain. Clear.1 mph77%30.12 "HgN/A
8:30 pm54 °FClear.3 mph77%30.09 "Hg10 mi
8:00 pm54 °FPassing clouds.3 mph77%30.09 "HgN/A
7:30 pm54 °FPassing clouds.6 mph77%30.07 "HgN/A
7:00 pm54 °FPassing clouds.3 mph77%30.07 "HgN/A
6:30 pm54 °FClear.3 mph77%30.07 "Hg4 mi
6:00 pm54 °FFog.6 mph77%30.07 "Hg2 mi
5:30 pm54 °FLight rain. Fog.6 mph88%30.07 "Hg2 mi
5:00 pm54 °FLight rain. Fog.6 mph88%30.07 "Hg2 mi
4:30 pm54 °FLight rain. Fog.6 mph88%30.07 "Hg1 mi
4:00 pm54 °FLight rain. Fog.3 mph88%30.07 "Hg1 mi
3:30 pm54 °FLight rain. Fog.6 mph88%30.07 "Hg1 mi
3:00 pm54 °FLight rain. Fog.6 mph88%30.07 "Hg1 mi
2:30 pm54 °FLight rain. Fog.6 mph88%30.07 "Hg1 mi
2:00 pm54 °FLight rain. Fog.8 mph88%30.07 "Hg2 mi
1:30 pm55 °FFog.3 mph82%30.09 "Hg2 mi
1:00 pm55 °FFog.8 mph77%30.09 "Hg2 mi
12:30 pm55 °FLight rain. Fog.8 mph77%30.09 "Hg2 mi
12:00 pm55 °FFog.6 mph77%30.09 "Hg2 mi
11:30 am55 °FFog.8 mph72%30.12 "Hg2 mi
11:00 am55 °FFog.8 mph77%30.12 "Hg2 mi
10:30 am54 °FFog.6 mph82%30.15 "Hg2 mi
10:00 am54 °FFog.8 mph77%30.15 "Hg2 mi
Weather by CustomWeather, © 2021

See weather overview